User: anonymous   Login
Location: Plum
(40.5000°N, 79.7500°W)
Time: 12:04:33
(UTC-04:00)
Language:

Cosmos 1825 - Orbit

View from above orbital plane
View from above orbital plane
View from above satellite
View from above satellite

Ground track
Ground track

The orbit data is extracted from the following two-line orbital elements,

1 17566U 87024A   15141.70341043  .00004432  00000-0  23036-3 0  9990
2 17566 082.5047 319.8082 0003360 347.8861 012.2290 15.15841276538960
Epoch (UTC): 21 May 2015 16:52:54
Eccentricity: 0.0003360
inclination: 82.5047°
perigee height: 516 km
apogee height: 521 km
right ascension of ascending node: 319.8082°
argument of perigee: 347.8861°
revolutions per day: 15.15841276
mean anomaly at epoch: 12.2290°
orbit number at epoch: 53896

The dashed part of the orbit path shows where the satellite is in the earth's shadow,  

DLR